Time,TemperatureF,DewpointF,PressureIn,WindDirection,WindDirectionDegrees,WindSpeedMPH,WindSpeedGustMPH,Humidity,HourlyPrecipIn,Conditions,Clouds,dailyrainin,SoftwareType,DateUTC
2013-03-13 00:02:00,42.0,23.0,30.42,NNW,333,0.0,0.0,47,0.00,,,0.00,,2013-03-13 05:02:00,
2013-03-13 00:12:00,42.0,23.0,30.42,NNW,333,0.0,0.0,47,0.00,,,0.00,,2013-03-13 05:12:00,
2013-03-13 00:22:00,41.0,24.0,30.43,NNW,334,0.0,1.0,50,0.00,,,0.00,,2013-03-13 05:22:00,
2013-03-13 00:32:00,39.0,23.0,30.43,NNW,334,0.0,0.0,53,0.00,,,0.00,,2013-03-13 05:32:00,
2013-03-13 00:42:00,39.0,23.0,30.43,NNW,334,0.0,0.0,53,0.00,,,0.00,,2013-03-13 05:42:00,
2013-03-13 00:52:00,38.0,23.0,30.43,NNW,335,0.0,0.0,55,0.00,,,0.00,,2013-03-13 05:52:00,
2013-03-13 01:02:00,38.0,23.0,30.43,NNW,345,0.0,1.0,55,0.00,,,0.00,,2013-03-13 06:02:00,
2013-03-13 01:12:00,38.0,23.0,30.43,NNW,345,0.0,1.0,55,0.00,,,0.00,,2013-03-13 06:12:00,
2013-03-13 01:23:00,37.0,23.0,30.44,NNW,345,0.0,0.0,56,0.00,,,0.00,,2013-03-13 06:23:00,
2013-03-13 01:32:00,37.0,22.0,30.44,NNW,345,0.0,0.0,54,0.00,,,0.00,,2013-03-13 06:32:00,
2013-03-13 01:42:00,37.0,22.0,30.44,NNW,345,0.0,0.0,54,0.00,,,0.00,,2013-03-13 06:42:00,
2013-03-13 01:52:00,38.0,22.0,30.45,NNW,346,0.0,1.0,53,0.00,,,0.00,,2013-03-13 06:52:00,
2013-03-13 02:02:00,38.0,22.0,30.45,NNW,345,0.0,1.0,52,0.00,,,0.00,,2013-03-13 07:02:00,
2013-03-13 02:12:00,38.0,22.0,30.45,NNW,345,0.0,1.0,52,0.00,,,0.00,,2013-03-13 07:12:00,
2013-03-13 02:22:00,38.0,22.0,30.45,NNW,333,0.0,1.0,52,0.00,,,0.00,,2013-03-13 07:22:00,
2013-03-13 02:32:00,37.0,21.0,30.46,NNW,330,0.0,1.0,53,0.00,,,0.00,,2013-03-13 07:32:00,
2013-03-13 02:42:00,37.0,21.0,30.46,NNW,330,0.0,1.0,53,0.00,,,0.00,,2013-03-13 07:42:00,
2013-03-13 02:53:00,37.0,22.0,30.46,NNW,330,0.0,0.0,54,0.00,,,0.00,,2013-03-13 07:53:00,
2013-03-13 03:03:00,36.0,22.0,30.46,NNW,330,0.0,0.0,56,0.00,,,0.00,,2013-03-13 08:03:00,
2013-03-13 03:12:00,36.0,22.0,30.46,NNW,330,0.0,0.0,56,0.00,,,0.00,,2013-03-13 08:12:00,
2013-03-13 03:22:00,35.0,22.0,30.46,NNW,330,0.0,0.0,59,0.00,,,0.00,,2013-03-13 08:22:00,
2013-03-13 03:32:00,34.0,22.0,30.46,NNW,330,0.0,0.0,60,0.00,,,0.00,,2013-03-13 08:32:00,
2013-03-13 03:43:00,34.0,22.0,30.46,NNW,330,0.0,0.0,60,0.00,,,0.00,,2013-03-13 08:43:00,
2013-03-13 03:54:00,33.0,22.0,30.46,NNW,330,0.0,0.0,63,0.00,,,0.00,,2013-03-13 08:54:00,
2013-03-13 04:02:00,32.0,22.0,30.47,NNW,330,0.0,0.0,65,0.00,,,0.00,,2013-03-13 09:02:00,
2013-03-13 04:12:00,32.0,22.0,30.47,NNW,330,0.0,0.0,65,0.00,,,0.00,,2013-03-13 09:12:00,
2013-03-13 04:22:00,31.0,22.0,30.47,NNW,330,0.0,0.0,70,0.00,,,0.00,,2013-03-13 09:22:00,
2013-03-13 04:32:00,30.0,22.0,30.47,NNW,330,0.0,0.0,71,0.00,,,0.00,,2013-03-13 09:32:00,
2013-03-13 04:42:00,30.0,22.0,30.47,NNW,330,0.0,0.0,71,0.00,,,0.00,,2013-03-13 09:42:00,
2013-03-13 04:52:00,29.0,21.0,30.47,NNW,330,0.0,0.0,73,0.00,,,0.00,,2013-03-13 09:52:00,
2013-03-13 05:02:00,29.0,22.0,30.47,NNW,330,0.0,0.0,74,0.00,,,0.00,,2013-03-13 10:02:00,
2013-03-13 05:12:00,29.0,22.0,30.47,NNW,330,0.0,0.0,74,0.00,,,0.00,,2013-03-13 10:12:00,
2013-03-13 05:22:00,30.0,23.0,30.48,NNW,330,0.0,0.0,75,0.00,,,0.00,,2013-03-13 10:22:00,
2013-03-13 05:32:00,29.0,22.0,30.48,NNW,330,0.0,0.0,76,0.00,,,0.00,,2013-03-13 10:32:00,
2013-03-13 05:42:00,29.0,22.0,30.48,NNW,330,0.0,0.0,76,0.00,,,0.00,,2013-03-13 10:42:00,
2013-03-13 05:52:00,29.0,23.0,30.49,NNW,330,0.0,0.0,78,0.00,,,0.00,,2013-03-13 10:52:00,
2013-03-13 06:02:00,29.0,23.0,30.49,NNW,330,0.0,0.0,79,0.00,,,0.00,,2013-03-13 11:02:00,
2013-03-13 06:12:00,29.0,23.0,30.49,NNW,330,0.0,0.0,79,0.00,,,0.00,,2013-03-13 11:12:00,
2013-03-13 06:22:00,29.0,24.0,30.49,NNW,330,0.0,0.0,80,0.00,,,0.00,,2013-03-13 11:22:00,
2013-03-13 06:32:00,30.0,24.0,30.50,NNW,330,0.0,0.0,79,0.00,,,0.00,,2013-03-13 11:32:00,
2013-03-13 06:42:00,30.0,24.0,30.50,NNW,330,0.0,0.0,79,0.00,,,0.00,,2013-03-13 11:42:00,
2013-03-13 06:52:00,29.0,24.0,30.50,NNW,330,0.0,0.0,80,0.00,,,0.00,,2013-03-13 11:52:00,
2013-03-13 07:02:00,28.0,23.0,30.50,NNW,330,0.0,0.0,81,0.00,,,0.00,,2013-03-13 12:02:00,
2013-03-13 07:12:00,28.0,23.0,30.50,NNW,330,0.0,0.0,81,0.00,,,0.00,,2013-03-13 12:12:00,
2013-03-13 07:22:00,28.0,24.0,30.50,NNW,330,0.0,0.0,83,0.00,,,0.00,,2013-03-13 12:22:00,
2013-03-13 07:32:00,29.0,25.0,30.51,NNW,330,0.0,0.0,84,0.00,,,0.00,,2013-03-13 12:32:00,
2013-03-13 07:42:00,29.0,25.0,30.51,NNW,330,0.0,0.0,84,0.00,,,0.00,,2013-03-13 12:42:00,
2013-03-13 07:53:00,28.0,24.0,30.52,NNW,330,0.0,0.0,84,0.00,,,0.00,,2013-03-13 12:53:00,
2013-03-13 08:02:00,28.0,24.0,30.52,NNW,330,0.0,0.0,86,0.00,,,0.00,,2013-03-13 13:02:00,
2013-03-13 08:11:00,28.0,24.0,30.52,NNW,330,0.0,0.0,86,0.00,,,0.00,,2013-03-13 13:11:00,
2013-03-13 08:22:00,29.0,24.0,30.52,NNW,330,0.0,0.0,82,0.00,,,0.00,,2013-03-13 13:22:00,
2013-03-13 08:33:00,31.0,24.0,30.53,NNW,346,0.0,1.0,74,0.00,,,0.00,,2013-03-13 13:33:00,
2013-03-13 08:42:00,31.0,24.0,30.53,NNW,346,0.0,1.0,74,0.00,,,0.00,,2013-03-13 13:42:00,
2013-03-13 08:52:00,33.0,24.0,30.54,North,350,1.0,3.0,68,0.00,,,0.00,,2013-03-13 13:52:00,
2013-03-13 09:02:00,35.0,24.0,30.54,NE,36,1.0,6.0,64,0.00,,,0.00,,2013-03-13 14:02:00,
2013-03-13 09:12:00,35.0,24.0,30.54,NE,36,1.0,6.0,64,0.00,,,0.00,,2013-03-13 14:12:00,
2013-03-13 09:22:00,36.0,24.0,30.54,NNW,340,1.0,4.0,62,0.00,,,0.00,,2013-03-13 14:22:00,
2013-03-13 09:33:00,37.0,25.0,30.55,NNE,28,1.0,5.0,62,0.00,,,0.00,,2013-03-13 14:33:00,
2013-03-13 09:42:00,37.0,25.0,30.55,NNE,28,1.0,5.0,62,0.00,,,0.00,,2013-03-13 14:42:00,
2013-03-13 09:52:00,37.0,25.0,30.54,NE,41,1.0,6.0,61,0.00,,,0.00,,2013-03-13 14:52:00,
2013-03-13 10:03:00,38.0,26.0,30.55,NE,50,1.0,6.0,61,0.00,,,0.00,,2013-03-13 15:03:00,
2013-03-13 10:12:00,38.0,26.0,30.55,NE,50,1.0,6.0,61,0.00,,,0.00,,2013-03-13 15:12:00,
2013-03-13 10:22:00,39.0,25.0,30.56,NE,43,1.0,5.0,58,0.00,,,0.00,,2013-03-13 15:22:00,
2013-03-13 10:32:00,40.0,26.0,30.57,East,98,1.0,5.0,56,0.00,,,0.00,,2013-03-13 15:32:00,
2013-03-13 10:42:00,40.0,26.0,30.57,East,98,1.0,5.0,56,0.00,,,0.00,,2013-03-13 15:42:00,
2013-03-13 10:52:00,41.0,27.0,30.58,NNW,345,0.0,3.0,56,0.00,,,0.00,,2013-03-13 15:52:00,
2013-03-13 11:02:00,42.0,26.0,30.58,NNE,18,1.0,4.0,53,0.00,,,0.00,,2013-03-13 16:02:00,
2013-03-13 11:12:00,42.0,26.0,30.58,NNE,18,1.0,4.0,53,0.00,,,0.00,,2013-03-13 16:12:00,
2013-03-13 11:22:00,43.0,26.0,30.58,ENE,75,0.0,5.0,51,0.00,,,0.00,,2013-03-13 16:22:00,
2013-03-13 11:32:00,44.0,28.0,30.58,ENE,68,0.0,5.0,52,0.00,,,0.00,,2013-03-13 16:32:00,
2013-03-13 11:42:00,44.0,28.0,30.58,ENE,68,0.0,5.0,52,0.00,,,0.00,,2013-03-13 16:42:00,
2013-03-13 11:52:00,45.0,25.0,30.57,NNE,20,2.0,4.0,45,0.00,,,0.00,,2013-03-13 16:52:00,
2013-03-13 12:02:00,45.0,25.0,30.57,NNE,20,2.0,4.0,45,0.00,,,0.00,,2013-03-13 17:02:00,
2013-03-13 12:12:00,45.0,25.0,30.57,NNE,20,2.0,4.0,45,0.00,,,0.00,,2013-03-13 17:12:00,
2013-03-13 12:22:00,46.0,24.0,30.56,ENE,76,2.0,8.0,41,0.00,,,0.00,,2013-03-13 17:22:00,
2013-03-13 12:32:00,47.0,22.0,30.56,NNE,32,2.0,6.0,37,0.00,,,0.00,,2013-03-13 17:32:00,
2013-03-13 12:42:00,47.0,22.0,30.56,NNE,32,2.0,6.0,37,0.00,,,0.00,,2013-03-13 17:42:00,
2013-03-13 12:53:00,48.0,24.0,30.56,ENE,68,3.0,6.0,39,0.00,,,0.00,,2013-03-13 17:53:00,
2013-03-13 13:02:00,49.0,25.0,30.55,NNW,328,0.0,4.0,39,0.00,,,0.00,,2013-03-13 18:02:00,
2013-03-13 13:12:00,49.0,25.0,30.55,NNW,328,0.0,4.0,39,0.00,,,0.00,,2013-03-13 18:12:00,
2013-03-13 13:22:00,49.0,22.0,30.55,SSW,201,1.0,5.0,34,0.00,,,0.00,,2013-03-13 18:22:00,
2013-03-13 13:33:00,50.0,23.0,30.55,West,262,0.0,4.0,34,0.00,,,0.00,,2013-03-13 18:33:00,
2013-03-13 13:42:00,50.0,23.0,30.55,West,262,0.0,4.0,34,0.00,,,0.00,,2013-03-13 18:42:00,
2013-03-13 13:52:00,50.0,22.0,30.55,SSE,162,0.0,3.0,33,0.00,,,0.00,,2013-03-13 18:52:00,
2013-03-13 14:02:00,53.0,24.0,30.53,East,95,0.0,4.0,32,0.00,,,0.00,,2013-03-13 19:02:00,
2013-03-13 14:12:00,53.0,24.0,30.53,East,95,0.0,4.0,32,0.00,,,0.00,,2013-03-13 19:12:00,
2013-03-13 14:22:00,53.0,23.0,30.53,North,3,0.0,4.0,31,0.00,,,0.00,,2013-03-13 19:22:00,
2013-03-13 14:32:00,52.0,22.0,30.52,East,86,2.0,5.0,31,0.00,,,0.00,,2013-03-13 19:32:00,
2013-03-13 14:43:00,52.0,22.0,30.52,East,86,2.0,5.0,31,0.00,,,0.00,,2013-03-13 19:43:00,
2013-03-13 14:53:00,53.0,25.0,30.51,NNE,19,0.0,4.0,33,0.00,,,0.00,,2013-03-13 19:53:00,
2013-03-13 15:02:00,53.0,22.0,30.51,ENE,70,2.0,3.0,30,0.00,,,0.00,,2013-03-13 20:02:00,
2013-03-13 15:12:00,53.0,22.0,30.51,ENE,70,2.0,3.0,30,0.00,,,0.00,,2013-03-13 20:12:00,
2013-03-13 15:22:00,54.0,23.0,30.50,SE,129,1.0,3.0,30,0.00,,,0.00,,2013-03-13 20:22:00,
2013-03-13 15:32:00,54.0,22.0,30.50,NE,54,0.0,5.0,29,0.00,,,0.00,,2013-03-13 20:32:00,
2013-03-13 15:42:00,54.0,22.0,30.50,NE,54,0.0,5.0,29,0.00,,,0.00,,2013-03-13 20:42:00,
2013-03-13 15:52:00,56.0,24.0,30.49,WSW,252,0.0,3.0,29,0.00,,,0.00,,2013-03-13 20:52:00,
2013-03-13 16:02:00,55.0,23.0,30.48,SE,128,0.0,4.0,29,0.00,,,0.00,,2013-03-13 21:02:00,
2013-03-13 16:12:00,55.0,23.0,30.48,SE,128,0.0,4.0,29,0.00,,,0.00,,2013-03-13 21:12:00,
2013-03-13 16:22:00,55.0,24.0,30.47,SW,236,0.0,5.0,30,0.00,,,0.00,,2013-03-13 21:22:00,
2013-03-13 16:33:00,55.0,23.0,30.47,East,82,2.0,5.0,28,0.00,,,0.00,,2013-03-13 21:33:00,
2013-03-13 16:42:00,55.0,23.0,30.47,East,82,2.0,5.0,28,0.00,,,0.00,,2013-03-13 21:42:00,
2013-03-13 16:52:00,54.0,23.0,30.47,NNE,33,2.0,6.0,30,0.00,,,0.00,,2013-03-13 21:52:00,
2013-03-13 17:02:00,54.0,23.0,30.47,NNE,33,2.0,6.0,30,0.00,,,0.00,,2013-03-13 22:02:00,
2013-03-13 17:12:00,54.0,23.0,30.47,NNE,33,2.0,6.0,30,0.00,,,0.00,,2013-03-13 22:12:00,
2013-03-13 17:22:00,55.0,23.0,30.46,East,96,0.0,5.0,29,0.00,,,0.00,,2013-03-13 22:22:00,
2013-03-13 17:32:00,55.0,23.0,30.46,ESE,115,0.0,3.0,29,0.00,,,0.00,,2013-03-13 22:32:00,
2013-03-13 17:42:00,55.0,23.0,30.46,ESE,115,0.0,3.0,29,0.00,,,0.00,,2013-03-13 22:42:00,
2013-03-13 17:52:00,55.0,23.0,30.46,ESE,103,2.0,6.0,29,0.00,,,0.00,,2013-03-13 22:52:00,
2013-03-13 18:02:00,54.0,23.0,30.45,East,101,2.0,7.0,30,0.00,,,0.00,,2013-03-13 23:02:00,
2013-03-13 18:12:00,54.0,23.0,30.45,East,101,2.0,7.0,30,0.00,,,0.00,,2013-03-13 23:12:00,
2013-03-13 18:22:00,54.0,22.0,30.45,East,98,1.0,4.0,29,0.00,,,0.00,,2013-03-13 23:22:00,
2013-03-13 18:32:00,54.0,22.0,30.44,East,94,1.0,4.0,29,0.00,,,0.00,,2013-03-13 23:32:00,
2013-03-13 18:42:00,54.0,22.0,30.44,East,94,1.0,4.0,29,0.00,,,0.00,,2013-03-13 23:42:00,
2013-03-13 18:52:00,54.0,22.0,30.44,South,190,0.0,3.0,28,0.00,,,0.00,,2013-03-13 23:52:00,
2013-03-13 19:12:00,54.0,22.0,30.44,ESE,102,2.0,6.0,29,0.00,,,0.00,,2013-03-14 00:12:00,
2013-03-13 19:22:00,53.0,22.0,30.43,East,84,1.0,3.0,30,0.00,,,0.00,,2013-03-14 00:22:00,
2013-03-13 19:32:00,52.0,23.0,30.43,SE,146,0.0,3.0,32,0.00,,,0.00,,2013-03-14 00:32:00,
2013-03-13 19:42:00,52.0,23.0,30.43,SE,146,0.0,3.0,32,0.00,,,0.00,,2013-03-14 00:42:00,
2013-03-13 19:52:00,52.0,25.0,30.43,East,99,0.0,1.0,34,0.00,,,0.00,,2013-03-14 00:52:00,
2013-03-13 20:02:00,51.0,24.0,30.43,ESE,115,0.0,1.0,35,0.00,,,0.00,,2013-03-14 01:02:00,
2013-03-13 20:12:00,51.0,24.0,30.43,ESE,115,0.0,1.0,35,0.00,,,0.00,,2013-03-14 01:12:00,
2013-03-13 20:22:00,50.0,25.0,30.42,ESE,113,0.0,1.0,37,0.00,,,0.00,,2013-03-14 01:22:00,
2013-03-13 20:32:00,49.0,25.0,30.42,ESE,113,0.0,0.0,38,0.00,,,0.00,,2013-03-14 01:32:00,
2013-03-13 20:42:00,49.0,25.0,30.42,ESE,113,0.0,0.0,38,0.00,,,0.00,,2013-03-14 01:42:00,
2013-03-13 20:52:00,48.0,25.0,30.42,ESE,113,0.0,0.0,40,0.00,,,0.00,,2013-03-14 01:52:00,
2013-03-13 21:02:00,47.0,25.0,30.42,ESE,113,0.0,0.0,42,0.00,,,0.00,,2013-03-14 02:02:00,
2013-03-13 21:12:00,47.0,25.0,30.42,ESE,113,0.0,0.0,42,0.00,,,0.00,,2013-03-14 02:12:00,
2013-03-13 21:22:00,46.0,25.0,30.43,ESE,113,0.0,0.0,44,0.00,,,0.00,,2013-03-14 02:22:00,
2013-03-13 21:32:00,46.0,26.0,30.42,ESE,113,0.0,0.0,45,0.00,,,0.00,,2013-03-14 02:32:00,
2013-03-13 21:42:00,46.0,26.0,30.42,ESE,113,0.0,0.0,45,0.00,,,0.00,,2013-03-14 02:42:00,
2013-03-13 21:51:00,46.0,26.0,30.42,ESE,113,0.0,0.0,45,0.00,,,0.00,,2013-03-14 02:51:00,
2013-03-13 22:02:00,44.0,27.0,30.42,ESE,113,0.0,0.0,50,0.00,,,0.00,,2013-03-14 03:02:00,
2013-03-13 22:12:00,44.0,27.0,30.42,ESE,113,0.0,0.0,50,0.00,,,0.00,,2013-03-14 03:12:00,
2013-03-13 22:22:00,44.0,26.0,30.43,East,99,0.0,1.0,48,0.00,,,0.00,,2013-03-14 03:22:00,
2013-03-13 22:32:00,44.0,26.0,30.43,East,99,0.0,0.0,49,0.00,,,0.00,,2013-03-14 03:32:00,
2013-03-13 22:42:00,44.0,26.0,30.43,East,99,0.0,0.0,49,0.00,,,0.00,,2013-03-14 03:42:00,
2013-03-13 22:52:00,44.0,26.0,30.43,East,91,0.0,1.0,49,0.00,,,0.00,,2013-03-14 03:52:00,
2013-03-13 23:12:00,44.0,26.0,30.43,East,98,0.0,0.0,48,0.00,,,0.00,,2013-03-14 04:12:00,
2013-03-13 23:22:00,43.0,26.0,30.43,East,100,0.0,1.0,50,0.00,,,0.00,,2013-03-14 04:22:00,
2013-03-13 23:32:00,43.0,26.0,30.43,ESE,105,0.0,1.0,51,0.00,,,0.00,,2013-03-14 04:32:00,
2013-03-13 23:42:00,43.0,26.0,30.43,ESE,105,0.0,1.0,51,0.00,,,0.00,,2013-03-14 04:42:00,
2013-03-13 23:52:00,43.0,26.0,30.43,ESE,105,0.0,1.0,51,0.00,,,0.00,,2013-03-14 04:52:00,